Weather reports worldwide

Advertisment
Augsburg, Germany (10852): temperature & dewpoint: 24.10.2020 11:00:00 - 30.10.2020 11:00:00 (CET)Augsburg, Germany (10852): temperature 5cm & temperature -5cm: 24.10.2020 11:00:00 - 30.10.2020 11:00:00 (CET)Augsburg, Germany (10852): temperature -20cm & temperature -100cm: 24.10.2020 11:00:00 - 30.10.2020 11:00:00 (CET)Augsburg, Germany (10852): wind speed & gusts: 24.10.2020 11:00:00 - 30.10.2020 11:00:00 (CET)Augsburg, Germany (10852): wind direction: 24.10.2020 11:00:00 - 30.10.2020 11:00:00 (CET)Augsburg, Germany (10852): reduced air pressure: 24.10.2020 11:00:00 - 30.10.2020 11:00:00 (CET)Augsburg, Germany (10852): visibility: 24.10.2020 11:00:00 - 30.10.2020 11:00:00 (CET)Augsburg, Germany (10852): sunshine duration: 24.10.2020 11:00:00 - 30.10.2020 11:00:00 (CET)Augsburg, Germany (10852): precipitation: 24.10.2020 11:00:00 - 30.10.2020 11:00:00 (CET)
Date & Time tt [°C] td [°C] tt 5cm [°C] tt -5cm [°C] tt -20cm [°C] tt -100cm [°C] ff [km/h] ff [kn] fx [km/h] fx [kn] dd ppp [hPa] vv [km] sd [min] rr [mm]
30.10.2020 11:00:00 - - - - - - - - - - - - - - -
30.10.2020 10:00:00 11,6 9,1 11,5 10,0 9,6 13,3 20 11 32 17 WSW 1024,5 10 0 0,0
30.10.2020 09:00:00 11,1 9,1 10,8 9,6 9,6 13,3 21 11 30 16 SW 1024,2 16 0 0,0
30.10.2020 08:00:00 11,0 8,8 10,2 9,4 9,6 13,3 16 9 28 15 WSW 1024,2 10 0 0,0
30.10.2020 07:00:00 10,9 8,7 10,2 9,2 9,6 13,3 21 11 29 16 SW 1023,4 27 0 0,0
30.10.2020 06:00:00 10,6 8,5 10,0 9,1 9,6 13,3 15 8 31 17 WSW 1023,3 10 0 0,0
30.10.2020 05:00:00 10,4 8,5 9,6 8,9 9,6 13,3 18 10 27 14 WSW 1023,0 18 0 0,0
30.10.2020 04:00:00 10,1 8,4 9,3 8,9 9,6 13,3 18 10 32 17 SW 1022,6 10 0 0,0
30.10.2020 03:00:00 9,9 8,6 9,2 8,9 9,6 13,3 15 8 23 13 SW 1023,0 10 0 0,1
30.10.2020 02:00:00 9,6 8,5 9,0 8,8 9,6 13,3 15 8 24 13 WSW 1023,5 10 0 0,1
30.10.2020 01:00:00 9,2 8,1 8,6 8,8 9,7 13,3 13 7 21 11 SW 1023,6 21 0 0,1
30.10.2020 00:00:00 9,1 8,0 8,6 8,8 9,7 13,3 11 6 20 11 SSW 1023,9 10 0 0,1
29.10.2020 23:00:00 9,0 7,9 8,3 8,8 9,8 13,3 14 7 22 12 SW 1024,0 20 0 0,1
29.10.2020 22:00:00 9,1 7,9 8,4 8,9 9,8 13,3 11 6 19 11 SW 1024,2 50 0 0,1
29.10.2020 21:00:00 9,2 7,5 8,3 9,1 9,8 13,3 14 8 22 12 WSW 1024,0 44 0 0,1
29.10.2020 20:00:00 9,5 8,3 8,7 9,2 9,9 13,3 12 6 19 10 WSW 1023,5 43 0 0,1
29.10.2020 19:00:00 9,9 8,6 9,2 9,3 9,9 13,3 13 7 19 11 WSW 1023,0 34 0 0,0
29.10.2020 18:00:00 9,9 8,3 9,2 9,6 9,9 13,3 10 5 16 9 WSW 1022,5 51 0 0,0
29.10.2020 17:00:00 9,8 7,9 9,1 9,9 9,9 13,3 8 4 19 10 WSW 1022,0 44 0 0,0
29.10.2020 16:00:00 10,1 7,5 9,6 10,2 9,8 13,4 11 6 19 10 WSW 1021,6 10 0 0,0
29.10.2020 15:00:00 10,4 6,9 10,2 10,3 9,7 13,4 12 6 29 15 WSW 1021,3 68 0 0,0
29.10.2020 14:00:00 10,9 6,5 10,6 10,5 9,6 13,4 19 10 35 19 W 1020,8 71 0 0,0
29.10.2020 13:00:00 11,0 7,6 10,9 10,7 9,4 13,4 21 11 42 23 W 1020,9 75 0 0,0
29.10.2020 12:00:00 11,0 7,2 11,2 10,7 9,3 13,4 26 14 42 23 WSW 1020,3 61 3 0,0
29.10.2020 11:00:00 10,5 8,0 10,9 9,7 9,2 13,4 21 12 37 20 W 1020,0 10 3 1,2
29.10.2020 10:00:00 10,5 8,7 10,8 9,6 9,1 13,4 22 12 31 17 WSW 1019,4 10 0 0,1
29.10.2020 09:00:00 9,6 8,0 9,1 8,7 9,1 13,4 19 11 29 15 SW 1018,8 10 0 1,0
29.10.2020 08:00:00 9,4 7,6 8,4 8,6 9,1 13,4 19 11 34 18 WSW 1018,3 10 0 1,7
29.10.2020 07:00:00 9,8 8,1 8,8 8,6 9,1 13,4 20 11 34 18 SW 1017,1 10 0 0,3
29.10.2020 06:00:00 10,4 7,4 9,2 8,5 9,1 13,4 16 9 34 19 SW 1016,5 10 0 0,2
29.10.2020 05:00:00 10,4 7,9 9,1 8,5 9,1 13,4 25 13 35 19 WSW 1016,3 10 0 0,0
29.10.2020 04:00:00 10,3 7,3 9,4 8,4 9,1 13,4 17 9 24 13 S 1016,0 10 0 0,0
29.10.2020 03:00:00 10,0 7,3 9,1 8,4 9,1 13,4 14 7 30 16 S 1016,4 10 0 0,0
29.10.2020 02:00:00 10,4 7,4 9,3 8,4 9,1 13,4 15 8 34 19 SSW 1017,2 10 0 0,0
29.10.2020 01:00:00 10,2 7,7 9,0 8,4 9,1 13,4 21 11 32 17 SW 1017,2 10 0 0,0
29.10.2020 00:00:00 9,9 7,9 8,8 8,2 9,2 13,4 18 10 28 15 S 1017,2 10 0 1,0
28.10.2020 23:00:00 9,2 6,8 7,9 8,0 9,2 13,4 8 4 18 10 SSW 1017,6 10 0 0,0
28.10.2020 22:00:00 8,4 6,5 7,3 7,9 9,3 13,4 8 4 14 8 SSE 1017,3 10 0 0,0
28.10.2020 21:00:00 9,2 6,6 7,7 8,3 9,4 13,4 8 4 18 10 SSW 1017,4 10 0 0,0
28.10.2020 20:00:00 9,8 6,9 8,4 8,3 9,5 13,4 11 6 21 12 SW 1017,3 75 0 0,0
28.10.2020 19:00:00 9,7 7,0 7,7 8,5 9,5 13,4 14 8 27 15 SW 1017,6 75 0 0,0
28.10.2020 18:00:00 10,4 6,9 8,6 9,3 9,4 13,4 21 11 29 16 SW 1017,2 75 0 0,0
28.10.2020 17:00:00 11,5 7,3 10,0 10,4 9,2 13,4 23 12 34 18 SW 1016,1 75 5 0,0
28.10.2020 16:00:00 12,5 7,4 11,8 11,4 8,9 13,4 23 12 36 19 SW 1015,7 75 1 0,0
28.10.2020 15:00:00 13,0 7,7 13,0 12,4 8,5 13,4 22 12 32 18 WSW 1015,5 75 33 0,0
28.10.2020 14:00:00 13,0 8,1 14,5 12,3 8,1 13,4 23 12 35 19 WSW 1015,6 75 49 0,0
28.10.2020 13:00:00 12,4 8,0 14,9 11,0 7,7 13,4 26 14 42 23 SW 1015,6 10 25 0,0
28.10.2020 12:00:00 11,1 7,7 11,7 9,6 7,5 13,4 27 15 40 21 SW 1016,1 75 10 0,0
28.10.2020 11:00:00 10,1 6,9 10,1 8,0 7,3 13,4 16 9 28 15 SW 1015,9 75 0 0,0
28.10.2020 10:00:00 9,2 5,8 8,9 7,1 7,2 13,5 16 9 27 15 SW 1015,5 10 0 0,0
28.10.2020 09:00:00 7,9 4,0 7,5 6,0 7,2 13,5 11 6 17 9 S 1015,2 10 0 0,0
28.10.2020 08:00:00 6,7 3,5 6,4 5,3 7,1 13,5 8 5 11 6 SSE 1014,9 75 0 0,0
28.10.2020 07:00:00 5,7 3,2 5,3 4,8 7,2 13,5 11 6 15 8 SSE 1014,3 75 0 0,0
28.10.2020 06:00:00 4,7 2,6 4,0 4,6 7,2 13,5 5 3 14 8 SSE 1014,5 75 0 0,0
28.10.2020 05:00:00 4,0 2,2 3,5 4,3 7,3 13,5 11 6 18 10 SSE 1014,6 75 0 0,1
28.10.2020 04:00:00 3,6 2,2 3,3 4,0 7,5 13,5 9 5 14 7 SSE 1014,7 10 0 0,0
28.10.2020 03:00:00 2,9 1,9 2,6 3,3 7,7 13,5 9 5 16 9 SSE 1015,2 10 0 0,0
28.10.2020 02:00:00 2,0 1,2 0,6 3,1 8,0 13,5 11 6 15 8 SE 1015,7 10 0 0,0
28.10.2020 01:00:00 2,3 1,5 0,7 3,3 8,2 13,5 11 6 16 9 SSE 1015,7 75 0 0,0
28.10.2020 00:00:00 2,5 1,9 0,3 3,7 8,5 13,5 9 5 13 7 SSE 1015,6 10 0 0,0
27.10.2020 23:00:00 1,3 0,0 -1,2 4,4 8,8 13,5 6 3 12 6 SSE 1016,0 75 0 0,0
27.10.2020 22:00:00 3,6 2,2 1,1 5,0 9,0 13,5 10 5 16 8 SSE 1015,5 75 0 0,0
27.10.2020 21:00:00 4,6 2,9 2,9 5,5 9,3 13,5 12 7 16 9 SSE 1015,0 75 0 0,0
27.10.2020 20:00:00 4,5 3,0 2,0 6,0 9,5 13,5 11 6 14 7 SSE 1015,0 10 0 0,0
27.10.2020 19:00:00 6,1 3,5 2,9 6,8 9,6 13,5 11 6 15 8 SE 1014,5 75 0 0,0
27.10.2020 18:00:00 6,9 3,7 2,4 8,0 9,7 13,4 10 5 16 8 S 1014,1 75 0 0,0
27.10.2020 17:00:00 8,2 3,5 5,0 9,6 9,5 13,4 13 7 21 11 SW 1013,8 10 27 0,0
27.10.2020 16:00:00 9,7 4,1 9,0 10,7 9,3 13,4 17 9 27 15 SW 1013,3 75 39 0,0
27.10.2020 15:00:00 10,3 4,4 11,3 11,8 8,9 13,4 13 7 32 17 SW 1013,1 75 52 0,0
27.10.2020 14:00:00 10,5 5,2 13,1 12,1 8,6 13,4 20 11 31 17 W 1013,0 75 41 0,0
27.10.2020 13:00:00 9,7 5,2 13,0 10,4 8,3 13,4 11 6 18 10 W 1013,1 10 14 0,0
27.10.2020 12:00:00 7,9 4,6 10,7 9,2 8,1 13,4 9 5 20 11 W 1013,9 10 7 0,0
27.10.2020 11:00:00 7,3 5,4 9,3 7,9 8,0 13,4 13 7 - - WSW 1013,8 10 2 0,0
27.10.2020 10:00:00 6,9 5,3 7,6 7,0 8,0 13,4 11 6 - - SW 1013,6 10 0 0,0
27.10.2020 09:00:00 6,0 4,0 6,1 5,9 8,1 13,4 2 1 - - - 1013,4 10 2 0,0
27.10.2020 08:00:00 4,8 4,0 4,3 5,3 8,2 13,4 8 5 13 7 S 1013,1 42 0 0,0
27.10.2020 07:00:00 4,2 3,5 2,8 5,3 8,3 13,4 5 3 10 6 SSE 1012,7 10 0 0,0
27.10.2020 06:00:00 4,6 3,7 3,9 5,5 8,4 13,4 7 4 13 7 S 1012,3 60 0 0,0
27.10.2020 05:00:00 4,6 3,7 4,0 5,6 8,5 13,4 9 5 11 6 SSE 1011,7 47 0 0,0
27.10.2020 04:00:00 4,3 3,5 3,4 5,8 8,6 13,4 5 3 10 5 SSE 1011,6 35 0 0,0
27.10.2020 03:00:00 4,5 3,6 3,9 5,9 8,8 13,4 5 3 13 7 SSE 1012,1 9 0 0,0
27.10.2020 02:00:00 4,4 3,6 4,1 6,1 8,9 13,3 8 4 13 7 S 1012,1 10 0 0,0
27.10.2020 01:00:00 4,6 3,7 4,3 6,2 9,0 13,3 10 5 16 9 S 1011,9 26 0 0,0
27.10.2020 00:00:00 4,8 3,7 4,5 6,4 9,1 13,3 11 6 16 8 SSW 1011,9 37 0 0,1
26.10.2020 23:00:00 4,6 3,7 4,4 6,6 9,3 13,3 8 5 13 7 S 1012,2 19 0 0,2
26.10.2020 22:00:00 4,7 3,7 4,5 6,7 9,4 13,3 9 5 19 11 SSW 1012,2 10 0 0,5
26.10.2020 21:00:00 4,8 3,8 4,6 6,9 9,6 13,3 13 7 19 10 S 1011,6 10 0 1,0
26.10.2020 20:00:00 5,0 4,0 4,7 7,2 9,7 13,4 13 7 25 14 SW 1011,1 9 0 1,5
26.10.2020 19:00:00 5,4 4,4 5,1 7,6 9,8 13,4 10 6 26 14 SSW 1010,5 12 0 2,5
26.10.2020 18:00:00 6,3 5,0 5,8 8,1 9,9 13,5 15 8 24 13 SSW 1010,1 10 0 1,8
26.10.2020 17:00:00 6,8 5,8 6,4 8,4 10,0 13,5 13 7 18 10 SSW 1009,1 12 0 2,3
26.10.2020 16:00:00 7,1 5,5 6,6 8,8 10,1 13,6 13 7 19 11 WSW 1009,3 10 0 1,9
26.10.2020 15:00:00 7,3 6,0 7,1 9,1 10,1 13,6 11 6 30 16 W 1008,4 10 0 3,1
26.10.2020 14:00:00 8,0 6,8 7,8 9,5 10,0 13,6 19 10 29 16 W 1007,8 8 0 1,5
26.10.2020 13:00:00 8,6 7,6 8,8 9,8 10,0 13,6 16 9 26 14 WNW 1006,9 9 0 0,6
26.10.2020 12:00:00 8,7 7,5 8,9 9,7 9,9 13,6 13 7 21 11 W 1006,3 8 0 0,5
26.10.2020 11:00:00 8,5 8,1 8,9 9,4 9,9 13,6 13 7 27 15 W 1006,4 3,4 0 1,3
26.10.2020 10:00:00 8,5 7,9 8,8 9,2 9,8 13,6 11 6 15 8 W 1006,0 6 0 0,0
26.10.2020 09:00:00 7,4 7,4 8,1 8,7 9,8 13,6 9 5 15 8 WNW 1005,4 1,3 0 0,0
26.10.2020 08:00:00 7,0 6,9 7,4 8,4 9,9 13,6 10 6 14 8 NNW 1004,5 0,5 0 0,0
26.10.2020 07:00:00 7,1 7,0 7,3 8,2 9,9 13,6 5 3 11 6 N 1003,6 1,6 0 0,0
26.10.2020 06:00:00 7,1 7,0 7,3 8,1 10,0 13,6 7 4 12 6 NNE 1003,7 0,8 0 0,0
26.10.2020 05:00:00 6,9 6,7 6,8 8,0 10,1 13,6 3 2 10 5 N 1004,1 8 0 0,0
26.10.2020 04:00:00 6,9 6,9 7,0 7,9 10,2 13,6 8 4 11 6 E 1004,3 2,3 0 0,0
26.10.2020 03:00:00 6,2 6,0 5,4 7,7 10,4 13,6 4 2 10 6 ENE 1005,2 3,3 0 0,0
26.10.2020 02:00:00 7,0 6,7 6,1 7,9 10,5 13,6 8 4 11 6 SE 1005,2 10 0 0,0
26.10.2020 01:00:00 7,6 7,5 6,4 8,1 10,7 13,6 4 2 16 9 ESE 1005,8 1,3 0 0,0
26.10.2020 00:00:00 7,6 7,3 7,3 7,8 10,9 13,6 12 7 16 9 SSW 1006,8 0,8 0 0,0
25.10.2020 23:00:00 5,5 5,3 3,7 7,9 11,2 13,5 8 4 10 5 E 1007,9 2,8 0 0,0
25.10.2020 22:00:00 7,6 7,4 3,6 8,8 11,3 13,5 3 2 8 5 E 1008,5 1,0 0 0,0
25.10.2020 21:00:00 7,9 7,7 6,6 9,4 11,5 13,5 4 2 8 4 ESE 1008,8 10 0 0,0
25.10.2020 20:00:00 9,9 8,8 6,8 10,1 11,6 13,5 7 4 13 7 S 1007,9 20 0 0,0
25.10.2020 19:00:00 11,2 9,5 9,2 10,8 11,7 13,5 8 4 18 10 SSE 1007,7 29 0 0,0
25.10.2020 18:00:00 11,3 9,6 8,2 11,6 11,7 13,5 8 4 10 6 ESE 1007,5 10 0 0,0
25.10.2020 17:00:00 12,9 9,7 8,8 13,3 11,4 13,5 9 5 11 6 ESE 1007,5 10 36 0,0
25.10.2020 16:00:00 15,0 10,4 14,7 14,7 11,0 13,5 5 3 10 5 E 1007,4 10 60 0,0
25.10.2020 15:00:00 15,6 8,8 16,9 15,5 10,5 13,5 5 3 12 7 SE 1007,8 52 60 0,0
25.10.2020 14:00:00 15,1 7,8 18,1 15,4 9,9 13,5 4 2 9 5 E 1008,5 41 60 0,0
25.10.2020 13:00:00 14,8 7,5 17,2 14,5 9,4 13,5 4 2 9 5 S 1009,3 60 60 0,0
25.10.2020 12:00:00 13,5 7,9 15,8 12,7 9,0 13,5 4 2 10 5 - 1010,1 10 60 0,0
25.10.2020 11:00:00 11,4 6,2 13,5 10,5 8,8 13,5 4 2 11 6 - 1011,4 10 60 0,0
25.10.2020 10:00:00 8,9 5,9 10,0 8,0 8,8 13,5 8 4 13 7 S 1012,4 49 60 0,0
25.10.2020 09:00:00 6,8 5,0 7,1 5,7 9,0 13,5 9 5 13 7 SSE 1013,4 25 60 0,0
25.10.2020 08:00:00 3,6 3,1 2,5 4,2 9,3 13,5 8 4 11 6 SSE 1014,6 9 37 0,0
25.10.2020 07:00:00 1,8 1,5 -0,8 4,3 9,5 13,5 6 3 9 5 S 1015,1 0,6 0 0,0
25.10.2020 06:00:00 2,4 2,4 -0,1 4,7 9,8 13,5 8 4 11 6 SSE 1015,1 1,2 0 0,0
25.10.2020 05:00:00 4,5 4,4 1,2 5,1 10,1 13,5 5 3 14 7 S 1015,1 3,7 0 0,0
25.10.2020 04:00:00 4,4 4,0 1,4 5,5 10,4 13,5 8 5 10 6 SSE 1015,4 6 0 0,0
25.10.2020 03:00:00 5,4 5,3 1,3 5,9 10,7 13,5 5 3 12 7 SSE 1015,7 10 0 0,0
25.10.2020 02:00:00 5,0 4,5 2,5 6,4 11,0 13,5 9 5 12 6 SSE 1016,3 8 0 0,0
25.10.2020 01:00:00 - - - - - - - - - - - - - - -
25.10.2020 00:00:00 6,6 6,0 4,8 7,4 11,6 13,5 11 6 16 8 SE 1017,0 10 0 0,0
24.10.2020 23:00:00 7,2 6,3 5,7 8,0 11,9 13,5 11 6 16 9 SE 1017,7 10 0 0,0
24.10.2020 22:00:00 7,9 6,8 6,2 8,4 12,2 13,5 11 6 15 8 SE 1018,1 10 0 0,0
24.10.2020 21:00:00 7,5 6,5 5,3 9,0 12,4 13,5 11 6 13 7 SSE 1018,4 17 0 0,0
24.10.2020 20:00:00 8,7 7,5 5,4 9,7 12,7 13,5 6 3 9 5 SSE 1018,2 32 0 0,0
24.10.2020 19:00:00 9,4 7,6 5,4 10,6 12,9 13,5 8 4 11 6 SSE 1018,1 10 0 0,0
24.10.2020 18:00:00 10,4 7,8 6,0 11,8 13,0 13,4 8 4 11 6 S 1017,8 58 0 0,0
24.10.2020 17:00:00 12,6 8,2 9,5 13,3 12,9 13,4 8 5 21 11 SW 1017,4 70 39 0,0
24.10.2020 16:00:00 14,3 8,9 14,2 14,5 12,8 13,4 16 9 27 15 SSW 1017,4 10 52 0,0
24.10.2020 15:00:00 14,8 9,5 15,9 15,2 12,6 13,4 14 8 26 14 SW 1017,7 26 34 0,0
24.10.2020 14:00:00 14,0 10,1 14,6 14,6 12,4 13,4 10 5 24 13 SW 1018,4 70 0 0,0
24.10.2020 13:00:00 14,2 10,2 15,4 14,9 12,2 13,4 13 7 24 13 WSW 1018,8 53 16 0,0
24.10.2020 12:00:00 13,8 10,6 15,2 14,6 12,0 13,4 11 6 18 10 WSW 1019,4 10 1 0,0
24.10.2020 11:00:00 13,0 10,7 14,3 13,4 11,9 13,4 12 6 16 9 W 1019,6 35 0 0,0

tt = temperature
td = dewpoint
tt 5cm = temperature 5cm
tt -5cm = temperature -5cm
tt -20cm = temperature -20cm
tt -100cm = temperature -100cm
ff = wind speed
fx = gusts
dd = wind direction
ppp = reduced air pressure
vv = visibility
sd = sunshine duration
rr = precipitation

Next stations